[[{"header":{"parameterUnit":"m.s-1","parameterCategory":2,"la1":30.2991,"la2":30.254,"lo1":-89.0895,"lo2":-89.0444,"dy":0.0017,"dx":0.0017,"nx":28,"ny":28,"refTime":"2025-09-16T09:00:00:Z","depth":"0","parameterNumber":2,"parameterNumberName":"U-component_of_CURRENTS"},"data":[0,0,0,0,0,0,0,0,0,0,0,0,0,0,0,0,0,0,0,0,0,0,0,0,0,0,0,0,0,0,0,0,0,0,0,0,0,0,0,0,0,0,0,0,0,0,0,0,0,0,0,0,0,0,0,0,0,0,0.3929,0.393,0,0.4004,0.4005,0.4005,0.403,0.403,0.403,0.403,0.403,0.403,0.403,0,0,0,0,0,0,0,0,0,0,0,0,0,0.3758,0.3761,0.3929,0.393,0.3931,0.4004,0.4005,0.4005,0.403,0.403,0.403,0.403,0.403,0.403,0.403,0,0,0,0,0,0,0,0,0,0,0,0,0,0.3829,0.3761,0.3929,0.3955,0.3959,0.4004,0.4005,0.4006,0.403,0.403,0.403,0.403,0.403,0.403,0.403,0.403,0,0,0.403,0.403,0,0,0,0,0,0,0,0,0.3825,0.3834,0.395,0.3953,0.3957,0.4011,0.3945,0.4011,0.403,0.3998,0.403,0.403,0.4019,0.402,0.403,0.403,0.403,0.403,0.403,0.403,0.403,0,0,0,0,0,0,0,0.382,0.3831,0.3955,0.3951,0.3956,0.3947,0.3957,0.3957,0.4003,0.4001,0.4004,0.4019,0.402,0.403,0.403,0.403,0.403,0.403,0.403,0.403,0.4052,0.4052,0,0,0,0,0,0,0.3822,0.3827,0.3952,0.3957,0.3894,0.395,0.3962,0.3991,0.4005,0.4009,0.4019,0.402,0.403,0.403,0.403,0.4049,0.403,0.403,0.403,0.4051,0.4052,0.4052,0,0,0,0,0,0,0.3818,0.3833,0.3949,0.3896,0.391,0.3954,0.3986,0.3992,0.4004,0.402,0.4022,0.4025,0.403,0.403,0.4038,0.4048,0.403,0.403,0.405,0.4051,0.4052,0.4074,0,0,0,0,0,0,0.3813,0.3831,0.3846,0.3897,0.3914,0.3977,0.3987,0.3994,0.4015,0.4017,0.4026,0.4026,0.403,0.4038,0.4038,0.4048,0.403,0.405,0.4051,0.4052,0.4073,0.4076,0.4078,0,0,0,0,0,0.3806,0.3839,0.3847,0.3862,0.3936,0.3978,0.3985,0.4013,0.4015,0.4022,0.4031,0.4026,0.4045,0.4038,0.4038,0.4048,0.4049,0.405,0.4052,0.4072,0.4075,0.4078,0,0,0,0,0,0,0.3758,0.3846,0.3856,0.3908,0.3937,0.3984,0.4,0.4012,0.4026,0.4027,0.4031,0.4033,0.4046,0.4042,0.4035,0.4058,0.4046,0.4048,0.4062,0.4065,0.4068,0.4137,0.403,0,0,0,0,0,0.3758,0.3816,0.3868,0.3906,0.3922,0.3956,0.3974,0.3993,0.4017,0.4023,0.4027,0.4036,0.4051,0.4053,0.4062,0.4069,0.4116,0.4076,0.4079,0.4081,0.4138,0.4215,0.4231,0.4056,0.4056,0.4056,0,0,0.3748,0.3805,0.3834,0.39,0.3926,0.3958,0.3966,0.4,0.403,0.4019,0.4046,0.4044,0.4056,0.4073,0.4078,0.4069,0.4147,0.4083,0.4085,0.4142,0.4218,0.4235,0.4251,0.4057,0.4057,0.4057,0,0,0.3756,0.3806,0.3848,0.3879,0.3929,0.3959,0.3967,0.4006,0.4027,0.4046,0.4056,0.4078,0.407,0.4107,0.412,0.4145,0.4162,0.4117,0.4186,0.4258,0.4274,0.4289,0.4341,0.4361,0.4116,0.4116,0.4116,0,0.3735,0.3795,0.3858,0.3894,0.3919,0.3959,0.398,0.4021,0.4054,0.408,0.4056,0.4105,0.4106,0.4171,0.4185,0.4157,0.419,0.4168,0.4265,0.4281,0.4296,0.4346,0.4368,0.4117,0.4117,0.4117,0.4117,0,0.3764,0.3805,0.3829,0.3901,0.3936,0.3961,0.4023,0.4055,0.4072,0.4109,0.4161,0.4175,0.4215,0.4202,0.4207,0.4305,0.4289,0.4261,0.4262,0.4316,0.4363,0.4386,0.4119,0.4118,0.4118,0.4118,0,0,0.3723,0.383,0.3832,0.3864,0.3936,0.3972,0.4035,0.4104,0.4162,0.4187,0.4261,0.4297,0.4315,0.4337,0.4336,0.4406,0.4521,0.4385,0.4388,0.4448,0.4673,0.4547,0.4558,0.45,0.4505,0.4509,0.4653,0,0.371,0.378,0.3836,0.3888,0.3923,0.3987,0.405,0.4126,0.4182,0.4267,0.4324,0.4387,0.4363,0.4385,0.4456,0.4503,0.4586,0.4486,0.4606,0.461,0.4502,0.4583,0.4319,0.4417,0.4675,0.4678,0.4681,0,0.3704,0.3757,0.3803,0.3901,0.3921,0.3963,0.4076,0.4138,0.4279,0.4324,0.4412,0.4463,0.4581,0.4548,0.47,0.4629,0.4684,0.472,0.4724,0.4633,0.4527,0.4411,0.4447,0.4297,0.4715,0.4712,0.471,0,0.3649,0.3732,0.3771,0.3798,0.3913,0.3952,0.402,0.4148,0.4233,0.4382,0.4459,0.4574,0.4655,0.474,0.4816,0.4768,0.4984,0.4909,0.4861,0.4851,0.4671,0.4636,0.4594,0.5071,0.5071,0.507,0.507,0,0.3624,0.3658,0.3752,0.3774,0.3852,0.3927,0.403,0.4122,0.4266,0.4382,0.4492,0.4605,0.4717,0.4838,0.4879,0.4938,0.5032,0.4924,0.49,0.4662,0.4627,0.4522,0.4485,0.5076,0.5074,0.5073,0.5072,0,0.359,0.3633,0.3701,0.3801,0.3835,0.3902,0.4055,0.4141,0.4263,0.4425,0.4483,0.4671,0.4784,0.4883,0.5032,0.501,0.4923,0.5088,0.4792,0.473,0.4462,0.4436,0.4339,0.4223,0.5028,0.5026,0.5024,0,0.3591,0.3613,0.3724,0.3779,0.383,0.3931,0.401,0.4137,0.4229,0.4454,0.4532,0.4706,0.4793,0.4944,0.4915,0.495,0.4867,0.4777,0.4641,0.4454,0.441,0.4282,0.4183,0.4406,0.4399,0.4394,0.4389,0,0.3613,0.3647,0.3719,0.3806,0.3885,0.3963,0.4069,0.4125,0.4273,0.4377,0.4502,0.4584,0.4708,0.4606,0.4669,0.4664,0.449,0.4665,0.4557,0.4015,0.3793,0.3662,0.4303,0.4341,0.4346,0.435,0.4352,0.4354,0.3655,0.3707,0.3781,0.3848,0.3923,0.3938,0.3933,0.4023,0.4085,0.4136,0.434,0.4328,0.4355,0.4342,0.4331,0.4079,0.415,0.3931,0.3949,0.3863,0.3639,0.4172,0.4118,0.4122,0.4125,0.4127,0.413,0,0.3706,0.3741,0.3815,0.3851,0.3849,0.3894,0.3926,0.3853,0.381,0.3899,0.3932,0.3848,0.3747,0.3736,0.3546,0.3397,0.3265,0.3304,0.3063,0.3029,0.3567,0.3422,0.3107,0.3107,0.3108,0.3108,0.3108,0.3108,0.3748,0.3795,0.3784,0.3733,0.3729,0.362,0.3572,0.3475,0.3461,0.33,0.319,0.3232,0.3291,0.3193,0.2966,0.2892,0.2702,0.2536,0.2632,0.2988,0.3047,0.3102,0.2955,0.2548,0.2547,0.1902,0.1897,0.1893]},{"header":{"parameterUnit":"m.s-1","parameterCategory":2,"la1":30.2991,"la2":30.254,"lo1":-89.0895,"lo2":-89.0444,"dy":0.0017,"dx":0.0017,"nx":28,"ny":28,"refTime":"2025-09-16T09:00:00:Z","depth":"0","parameterNumber":3,"parameterNumberName":"V-component_of_CURRENTS"},"data":[0,0,0,0,0,0,0,0,0,0,0,0,0,0,0,0,0,0,0,0,0,0,0,0,0,0,0,0,0,0,0,0,0,0,0,0,0,0,0,0,0,0,0,0,0,0,0,0,0,0,0,0,0,0,0,0,0,0,0.0201,0.0201,0,0.0154,0.0153,0.0152,0.0091,0.009,0.009,0.0089,0.0018,0.0017,0.0015,0,0,0,0,0,0,0,0,0,0,0,0,0,0.0196,0.0196,0.0201,0.0201,0.02,0.0154,0.0153,0.0152,0.0091,0.009,0.0089,0.0089,0.0018,0.0017,0.0015,0,0,0,0,0,0,0,0,0,0,0,0,0,0.0176,0.0196,0.0201,0.0166,0.0163,0.0154,0.0153,0.0152,0.0092,0.009,0.0089,0.0088,0.0019,0.0017,0.0015,0.0027,0,0,0.001,0.0009,0,0,0,0,0,0,0,0,0.0177,0.0176,0.0172,0.0169,0.0165,0.0129,0.0125,0.011,0.0092,0.0116,0.0089,0.0088,0.0055,0.005,0.0041,0.0024,0.0021,0.001,0.0008,0.0008,0.0007,0,0,0,0,0,0,0,0.0179,0.0177,0.018,0.0172,0.0167,0.0138,0.0134,0.0121,0.0091,0.0114,0.011,0.0109,0.0053,0.0043,0.0039,0.002,0.001,0.0008,0.0007,0.0006,-0.0008,-0.0008,0,0,0,0,0,0,0.0193,0.0179,0.0182,0.0179,0.0171,0.014,0.0135,0.014,0.0091,0.0083,0.011,0.0106,0.0046,0.0041,0.0036,0.0068,0.0008,0.0006,0.0005,-0.0009,-0.0008,-0.0007,0,0,0,0,0,0,0.0193,0.0194,0.0184,0.0179,0.0176,0.0141,0.0147,0.014,0.013,0.0089,0.008,0.0108,0.0045,0.0039,0.003,0.0063,0.0005,0.0004,-0.001,-0.0009,-0.0008,0.0118,0,0,0,0,0,0,0.0193,0.0195,0.0201,0.0181,0.0177,0.0194,0.0148,0.014,0.0132,0.0126,0.0084,0.0076,0.0044,0.0033,0.0028,0.006,0.0002,-0.0011,-0.0009,-0.0008,0.0113,0.0123,0.0132,0,0,0,0,0,0.0194,0.0219,0.0202,0.0202,0.0188,0.0196,0.0192,0.016,0.0133,0.0143,0.0107,0.0077,0.0037,0.0032,0.0026,0.0059,-0.0011,-0.001,-0.0008,0.0109,0.0121,0.0132,0,0,0,0,0,0,0.0225,0.0215,0.0195,0.0217,0.0211,0.0187,0.0192,0.0169,0.0149,0.0137,0.0091,0.0082,0.0087,0.0051,0.0047,0.0054,0.0006,0.0007,0.0097,0.0108,0.0117,0.0162,0.0001,0,0,0,0,0,0.0235,0.0245,0.0233,0.0248,0.0249,0.0219,0.0216,0.0197,0.0177,0.0166,0.0137,0.0103,0.009,0.0081,0.006,0.0069,0.0064,0.0081,0.0091,0.01,0.013,0.0162,0.0179,-0.0002,-0.0002,-0.0002,0,0,0.0252,0.0246,0.0252,0.0254,0.0242,0.0262,0.0214,0.022,0.0238,0.0163,0.0175,0.014,0.0099,0.0109,0.0108,0.0083,0.0143,0.0102,0.011,0.0136,0.0166,0.0184,0.02,-0.0001,-0.0002,-0.0002,0,0,0.0295,0.0286,0.0308,0.031,0.0303,0.0294,0.0301,0.0284,0.0278,0.0283,0.0237,0.0234,0.0195,0.0192,0.018,0.0231,0.0195,0.0203,0.0291,0.0322,0.0338,0.0353,0.0358,0.0372,0.0206,0.0206,0.0206,0,0.0309,0.0341,0.0318,0.0342,0.0357,0.0316,0.0355,0.0348,0.033,0.0348,0.03,0.0286,0.0248,0.0288,0.0295,0.0261,0.0254,0.0256,0.034,0.0354,0.0366,0.0368,0.0382,0.0213,0.0212,0.0211,0.0211,0,0.037,0.0394,0.0412,0.0429,0.0444,0.0471,0.0466,0.0479,0.0459,0.0456,0.0483,0.0435,0.0434,0.0411,0.0365,0.0434,0.0391,0.0353,0.0322,0.0393,0.0389,0.0401,0.0221,0.0219,0.0217,0.0216,0,0,0.0406,0.0446,0.0452,0.0485,0.0496,0.0522,0.0562,0.0604,0.0652,0.0619,0.0692,0.065,0.0625,0.061,0.0558,0.0572,0.064,0.0501,0.05,0.0527,0.0692,0.0626,0.0631,0.0614,0.0617,0.0619,0.0649,0,0.0459,0.0528,0.0538,0.0617,0.0659,0.0657,0.0708,0.0737,0.0748,0.0805,0.0775,0.0811,0.07,0.0711,0.071,0.0666,0.068,0.0635,0.0601,0.06,0.0551,0.0647,0.059,0.0609,0.0661,0.0663,0.0664,0,0.0522,0.0561,0.0645,0.0731,0.0752,0.0795,0.0887,0.093,0.0989,0.1002,0.1025,0.1,0.1025,0.0921,0.0896,0.0867,0.0799,0.0749,0.0749,0.066,0.0559,0.0546,0.0629,0.047,0.0683,0.0681,0.068,0,0.0568,0.0649,0.0723,0.0746,0.0824,0.0877,0.0926,0.0991,0.106,0.1143,0.1208,0.1201,0.1235,0.1152,0.1026,0.0974,0.0995,0.0912,0.0791,0.0784,0.0718,0.07,0.0668,0.0922,0.0922,0.0922,0.0922,0,0.0634,0.0696,0.0752,0.0792,0.0906,0.094,0.1068,0.1116,0.1216,0.1339,0.1317,0.1415,0.1298,0.1278,0.1123,0.1003,0.1072,0.0844,0.0808,0.0754,0.074,0.0581,0.0486,0.0923,0.0923,0.0922,0.0922,0,0.0682,0.0711,0.0805,0.0893,0.0929,0.1013,0.1151,0.1252,0.1331,0.1499,0.1543,0.1607,0.159,0.1441,0.1339,0.1154,0.0926,0.0964,0.0893,0.0848,0.0553,0.0467,0.041,0.0345,0.0843,0.0842,0.0841,0,0.0715,0.0763,0.0868,0.0938,0.0984,0.1103,0.12,0.1297,0.1416,0.162,0.1723,0.1779,0.184,0.1648,0.1349,0.1096,0.0932,0.0859,0.0751,0.0568,0.0446,0.0387,0.0333,0.0705,0.0703,0.0702,0.07,0,0.0785,0.0813,0.0886,0.1019,0.1126,0.1253,0.1399,0.1502,0.1656,0.1809,0.2013,0.2086,0.1927,0.1676,0.132,0.1113,0.0724,0.0815,0.0665,0.0385,0.0285,0.0193,0.0632,0.0686,0.0687,0.0688,0.0689,0.069,0.0835,0.0896,0.099,0.1122,0.1246,0.14,0.1511,0.1684,0.1881,0.2118,0.2192,0.2311,0.1931,0.145,0.1174,0.0591,0.0634,0.0396,0.0322,0.0293,0.0189,0.0584,0.0566,0.0566,0.0567,0.0567,0.0568,0,0.0902,0.0972,0.1098,0.1248,0.1386,0.1437,0.1649,0.1775,0.201,0.2216,0.2384,0.2218,0.1759,0.1263,0.0497,0.015,0.0034,-0.0029,-0.0123,-0.0143,0.0244,0.0194,0.0046,0.0046,0.0047,0.0047,0.0047,0.0047,0.0947,0.1054,0.1114,0.1334,0.1445,0.1618,0.173,0.193,0.2101,0.2292,0.2324,0.2347,0.1912,0.0703,-0.0095,-0.0266,-0.0476,-0.0542,-0.0597,-0.0363,-0.0329,-0.0296,-0.0364,-0.0626,-0.0627,-0.0961,-0.0965,-0.0968]}],[{"header":{"parameterUnit":"m.s-1","parameterCategory":2,"la1":30.2991,"la2":30.254,"lo1":-89.0895,"lo2":-89.0444,"dy":0.0017,"dx":0.0017,"nx":28,"ny":28,"refTime":"2025-09-16T09:00:00:Z","depth":"2","parameterNumber":2,"parameterNumberName":"U-component_of_CURRENTS"},"data":[0,0,0,0,0,0,0,0,0,0,0,0,0,0,0,0,0,0,0,0,0,0,0,0,0,0,0,0,0,0,0,0,0,0,0,0,0,0,0,0,0,0,0,0,0,0,0,0,0,0,0,0,0,0,0,0,0,0,0.2443,0.2445,0,0.2406,0.2403,0.2401,0.2457,0.2461,0.2466,0.247,0.2564,0.2563,0.2561,0,0,0,0,0,0,0,0,0,0,0,0,0,0.2435,0.2434,0.2443,0.2445,0.2447,0.2406,0.2403,0.24,0.2456,0.2461,0.2467,0.2472,0.2565,0.2563,0.2561,0,0,0,0,0,0,0,0,0,0,0,0,0,0.2398,0.2433,0.2443,0.2489,0.2495,0.2407,0.2403,0.2399,0.2455,0.2462,0.2468,0.2474,0.2565,0.2563,0.2561,0.2416,0,0,0.2554,0.2553,0,0,0,0,0,0,0,0,0.24,0.2394,0.248,0.2486,0.2493,0.2466,0.2437,0.2421,0.2453,0.2442,0.247,0.2477,0.2556,0.2555,0.2494,0.242,0.2424,0.2554,0.2552,0.2551,0.255,0,0,0,0,0,0,0,0.2402,0.2396,0.2402,0.2483,0.249,0.2471,0.247,0.243,0.2445,0.2444,0.2454,0.249,0.2557,0.2495,0.2497,0.2425,0.2554,0.2552,0.255,0.2549,0.2612,0.2615,0,0,0,0,0,0,0.2459,0.2398,0.2403,0.2403,0.2491,0.2468,0.2467,0.2446,0.2443,0.2455,0.2484,0.2493,0.2496,0.25,0.2502,0.2634,0.2551,0.2549,0.2548,0.2609,0.2613,0.2616,0,0,0,0,0,0,0.2457,0.2456,0.2405,0.2425,0.2421,0.2465,0.2439,0.2443,0.2443,0.2477,0.2488,0.2494,0.2501,0.2505,0.2568,0.2629,0.2548,0.2546,0.2606,0.2611,0.2615,0.2707,0,0,0,0,0,0,0.2455,0.2454,0.2445,0.2426,0.2423,0.2423,0.2436,0.2438,0.2464,0.2476,0.2486,0.2498,0.2507,0.2572,0.2566,0.2624,0.2544,0.2602,0.2608,0.2613,0.27,0.2714,0.2726,0,0,0,0,0,0.2454,0.2428,0.2442,0.2446,0.2411,0.2427,0.2419,0.2456,0.246,0.247,0.2507,0.2501,0.2606,0.2571,0.2563,0.2623,0.2599,0.2606,0.2613,0.2694,0.2711,0.2725,0,0,0,0,0,0,0.2431,0.2433,0.2449,0.2428,0.2466,0.2449,0.2448,0.2462,0.2473,0.2496,0.2507,0.2522,0.26,0.2592,0.2553,0.2665,0.2611,0.2617,0.2676,0.2691,0.2704,0.274,0.2542,0,0,0,0,0,0.2419,0.2402,0.2426,0.2425,0.2427,0.2429,0.2434,0.2471,0.2493,0.2501,0.2526,0.2562,0.2597,0.2638,0.265,0.2681,0.2691,0.2729,0.2742,0.2753,0.2781,0.2891,0.2917,0.2639,0.2639,0.2639,0,0,0.2426,0.2423,0.2421,0.2422,0.242,0.2455,0.2441,0.2473,0.2531,0.2508,0.2574,0.2588,0.2612,0.2681,0.2717,0.2701,0.2822,0.2761,0.277,0.2794,0.2901,0.2929,0.2953,0.2644,0.2643,0.2642,0,0,0.2443,0.2406,0.2407,0.2445,0.2492,0.2482,0.2509,0.2523,0.2553,0.2608,0.263,0.2695,0.272,0.2776,0.2798,0.2879,0.2873,0.2897,0.3005,0.3111,0.3135,0.3156,0.3132,0.3151,0.2922,0.2922,0.2922,0,0.2464,0.246,0.2423,0.2466,0.251,0.2507,0.2559,0.2568,0.2629,0.269,0.2672,0.2759,0.2768,0.2878,0.2935,0.2908,0.294,0.2936,0.3129,0.3151,0.3171,0.3142,0.3162,0.2927,0.2927,0.2926,0.2926,0,0.2511,0.2527,0.2532,0.2572,0.2599,0.2646,0.2685,0.2723,0.2741,0.2807,0.2912,0.29,0.2983,0.2989,0.2988,0.3147,0.3106,0.3115,0.3086,0.3205,0.3165,0.3184,0.2935,0.2933,0.2931,0.293,0,0,0.2504,0.2553,0.2568,0.259,0.2668,0.2674,0.277,0.286,0.2945,0.2999,0.3105,0.3163,0.3186,0.3213,0.3203,0.3294,0.3422,0.3294,0.3297,0.3262,0.3598,0.3456,0.3461,0.3499,0.3504,0.3509,0.3486,0,0.2561,0.2625,0.2658,0.2732,0.2739,0.2802,0.2885,0.2991,0.3064,0.3167,0.3209,0.3299,0.3264,0.3295,0.3389,0.3429,0.3491,0.3422,0.3496,0.3496,0.3353,0.3487,0.3224,0.3177,0.3504,0.3507,0.3509,0,0.2595,0.2618,0.2695,0.2761,0.2777,0.2851,0.2959,0.3054,0.3239,0.3318,0.3445,0.3475,0.3598,0.3525,0.3669,0.3646,0.3646,0.3645,0.3645,0.3507,0.3394,0.3128,0.3198,0.354,0.3537,0.3535,0.3533,0,0.2535,0.2632,0.267,0.2714,0.2809,0.2874,0.2944,0.3126,0.3223,0.3432,0.3524,0.3669,0.3712,0.3794,0.3785,0.3778,0.3897,0.3871,0.3712,0.3695,0.348,0.3437,0.3976,0.3976,0.3976,0.3976,0.3977,0,0.255,0.2588,0.2646,0.2676,0.2761,0.2838,0.298,0.3111,0.3288,0.3416,0.3595,0.368,0.3808,0.3865,0.3855,0.3832,0.3957,0.3756,0.3725,0.3493,0.3453,0.3788,0.3767,0.3975,0.3976,0.3976,0.3976,0,0.2504,0.2559,0.259,0.268,0.2735,0.2795,0.2992,0.3097,0.3286,0.3434,0.35,0.3739,0.3855,0.3883,0.398,0.3893,0.3887,0.3827,0.3476,0.3407,0.358,0.3564,0.3682,0.3678,0.3674,0.3671,0.3668,0,0.2501,0.2478,0.2576,0.2642,0.2709,0.2822,0.2931,0.3105,0.3189,0.3438,0.3477,0.3673,0.3742,0.3818,0.3771,0.3706,0.3804,0.3383,0.3334,0.3614,0.3572,0.3561,0.355,0.3037,0.303,0.3023,0.3019,0,0.2436,0.2455,0.2513,0.262,0.2724,0.2833,0.2956,0.2999,0.3158,0.3255,0.3385,0.3465,0.3574,0.3458,0.34,0.3332,0.3387,0.3254,0.3713,0.3157,0.3008,0.2965,0.2975,0.2964,0.297,0.2974,0.2976,0.2979,0.2419,0.2434,0.2488,0.2597,0.2701,0.2782,0.2821,0.288,0.2935,0.2962,0.3133,0.3141,0.3179,0.3016,0.2904,0.2852,0.3075,0.2917,0.2937,0.2962,0.2898,0.2753,0.264,0.2643,0.2646,0.2649,0.2651,0,0.2388,0.2412,0.2469,0.256,0.2597,0.2715,0.2781,0.2741,0.2681,0.2721,0.273,0.2513,0.2435,0.2515,0.2344,0.2296,0.2286,0.221,0.2187,0.2243,0.2292,0.2194,0.1749,0.1746,0.1743,0.174,0,0,0.2371,0.2395,0.2384,0.2395,0.2479,0.2487,0.2501,0.2409,0.2377,0.2254,0.2193,0.231,0.2425,0.2049,0.1992,0.1856,0.2039,0.1785,0.2514,0.2546,0.2591,0.2708,0.262,0,0,0,0,0]},{"header":{"parameterUnit":"m.s-1","parameterCategory":2,"la1":30.2991,"la2":30.254,"lo1":-89.0895,"lo2":-89.0444,"dy":0.0017,"dx":0.0017,"nx":28,"ny":28,"refTime":"2025-09-16T09:00:00:Z","depth":"2","parameterNumber":3,"parameterNumberName":"V-component_of_CURRENTS"},"data":[0,0,0,0,0,0,0,0,0,0,0,0,0,0,0,0,0,0,0,0,0,0,0,0,0,0,0,0,0,0,0,0,0,0,0,0,0,0,0,0,0,0,0,0,0,0,0,0,0,0,0,0,0,0,0,0,0,0,0.0022,0.0022,0,0.0031,0.0032,0.0032,-0.0028,-0.003,-0.0032,-0.0034,-0.0156,-0.0157,-0.0159,0,0,0,0,0,0,0,0,0,0,0,0,0,0.0041,0.0041,0.0022,0.0022,0.0022,0.0031,0.0032,0.0032,-0.0028,-0.003,-0.0033,-0.0035,-0.0156,-0.0157,-0.0159,0,0,0,0,0,0,0,0,0,0,0,0,0,0.0043,0.0041,0.0022,-0.001,-0.0013,0.0031,0.0032,0.0032,-0.0027,-0.003,-0.0033,-0.0036,-0.0155,-0.0157,-0.0159,-0.011,0,0,-0.0165,-0.0166,0,0,0,0,0,0,0,0,0.0043,0.0043,-0.0005,-0.0008,-0.0011,-0.0006,-0.0006,-0.0023,-0.0027,-0.0018,-0.0034,-0.0038,-0.0118,-0.0123,-0.0108,-0.0116,-0.0121,-0.0165,-0.0167,-0.0167,-0.0168,0,0,0,0,0,0,0,0.0043,0.0043,0.0029,-0.0005,-0.0009,0.0006,0.0002,-0.0008,-0.0051,-0.0019,-0.0024,-0.0028,-0.0121,-0.0105,-0.0112,-0.0123,-0.0165,-0.0167,-0.0168,-0.0169,-0.0233,-0.0233,0,0,0,0,0,0,0.0033,0.0043,0.0029,0.0029,0.0005,0.0007,0.0003,-0.0001,-0.0048,-0.0058,-0.0025,-0.0031,-0.01,-0.0109,-0.0116,-0.0159,-0.0167,-0.0169,-0.017,-0.0232,-0.0233,-0.0233,0,0,0,0,0,0,0.0034,0.0032,0.0029,0.0033,0.0033,0.0009,0.0005,0.0,-0.0004,-0.0052,-0.0065,-0.0029,-0.0103,-0.0113,-0.0161,-0.0161,-0.017,-0.0172,-0.0232,-0.0232,-0.0233,-0.0183,0,0,0,0,0,0,0.0035,0.0033,0.0029,0.0033,0.0032,0.0035,0.0007,0.0003,-0.0003,-0.001,-0.0058,-0.0071,-0.0106,-0.0157,-0.0163,-0.0164,-0.0174,-0.0231,-0.0232,-0.0233,-0.0184,-0.0181,-0.018,0,0,0,0,0,0.0035,0.0041,0.0029,0.0027,0.0027,0.0035,0.0036,0.0012,0.0,-0.0002,-0.0047,-0.0071,-0.0168,-0.0159,-0.0165,-0.0167,-0.0231,-0.0232,-0.0233,-0.0185,-0.0182,-0.018,0,0,0,0,0,0,0.0047,0.0036,0.0022,0.0022,0.0018,0.0022,0.0029,0.0017,-0.0009,-0.0022,-0.0069,-0.0085,-0.0126,-0.0153,-0.0142,-0.0191,-0.0205,-0.0207,-0.0166,-0.0164,-0.0162,-0.0122,-0.0175,0,0,0,0,0,0.005,0.0046,0.0039,0.0037,0.0044,0.0041,0.0043,0.0025,0.0004,-0.0009,-0.0046,-0.0089,-0.0125,-0.0153,-0.0185,-0.0201,-0.0207,-0.0211,-0.0209,-0.0207,-0.0181,-0.0153,-0.0145,-0.0237,-0.0237,-0.0237,0,0,0.0054,0.0046,0.0043,0.0039,0.0045,0.0061,0.0035,0.0039,0.0037,-0.0018,-0.0035,-0.0079,-0.0128,-0.0159,-0.018,-0.0188,-0.0201,-0.0209,-0.0206,-0.0181,-0.0153,-0.0143,-0.0135,-0.0238,-0.0237,-0.0237,0,0,0.0074,0.0059,0.0072,0.0071,0.0069,0.0072,0.0071,0.0069,0.005,0.0031,-0.0015,-0.0055,-0.0106,-0.0139,-0.0162,-0.0162,-0.0186,-0.0188,-0.0147,-0.012,-0.0111,-0.0103,-0.016,-0.0157,-0.0191,-0.0191,-0.0191,0,0.0078,0.0092,0.0077,0.0093,0.0102,0.0079,0.0107,0.0094,0.0065,0.0054,0.0019,-0.0029,-0.0087,-0.0101,-0.0125,-0.0152,-0.0168,-0.015,-0.0113,-0.0105,-0.0097,-0.0157,-0.0154,-0.0189,-0.0189,-0.0189,-0.0189,0,0.0114,0.0123,0.0136,0.0147,0.0156,0.0171,0.0157,0.0148,0.0125,0.0103,0.0078,0.0024,-0.0006,-0.0041,-0.0091,-0.0075,-0.0118,-0.0107,-0.0108,-0.0084,-0.0151,-0.0149,-0.0185,-0.0186,-0.0187,-0.0188,0,0,0.0135,0.0158,0.0162,0.0184,0.0186,0.0205,0.0204,0.0205,0.0215,0.0168,0.0182,0.0108,0.0082,0.0056,0.0004,0.0009,0.0002,-0.0032,-0.0032,-0.0072,0.0004,-0.0032,-0.0035,0.003,0.0032,0.0034,-0.0086,0,0.0172,0.0221,0.022,0.027,0.0304,0.0285,0.0294,0.0278,0.0257,0.0252,0.02,0.0183,0.0118,0.0104,0.0103,0.0063,0.002,0.003,-0.0028,-0.0031,-0.0048,-0.0027,0.0007,-0.0094,-0.0084,-0.0084,-0.0083,0,0.0213,0.0245,0.0303,0.0346,0.0362,0.0379,0.041,0.0414,0.0384,0.0367,0.0351,0.0296,0.0283,0.0225,0.0189,0.0203,0.0092,0.0044,0.0039,0.0004,-0.0059,-0.0107,-0.0091,-0.008,-0.0081,-0.0081,-0.0081,0,0.0253,0.0305,0.0358,0.0369,0.0408,0.0428,0.0449,0.0441,0.0468,0.0444,0.0461,0.0428,0.0437,0.036,0.0231,0.0215,0.0181,0.0148,-0.0011,-0.002,-0.0,-0.0008,0.008,0.0081,0.0081,0.0081,0.0082,0,0.0293,0.0335,0.0379,0.0407,0.0475,0.0483,0.0547,0.0548,0.0575,0.0629,0.0534,0.0588,0.0483,0.0428,0.0281,0.0165,0.0219,0.0006,-0.0025,0.0006,0.0001,0.0023,0.0018,0.0077,0.0078,0.0078,0.0079,0,0.0317,0.0344,0.0413,0.0471,0.0493,0.0542,0.0623,0.0673,0.0686,0.0763,0.0761,0.0737,0.0698,0.0533,0.0409,0.0251,0.0118,0.0021,0.002,-0.0007,-0.0138,-0.014,-0.0145,-0.0146,-0.0148,-0.0149,-0.015,0,0.0331,0.037,0.0459,0.0512,0.0539,0.0614,0.0673,0.072,0.08,0.0874,0.0934,0.0888,0.0874,0.0663,0.0414,0.0143,0.0098,-0.0062,-0.0081,-0.0117,-0.0148,-0.0148,-0.0147,-0.0082,-0.0082,-0.0083,-0.0083,0,0.037,0.0399,0.0458,0.0568,0.0645,0.0738,0.0839,0.0922,0.1001,0.1081,0.1194,0.1175,0.0961,0.0751,0.0356,0.0174,0.0003,-0.0079,-0.0061,-0.002,-0.0063,-0.0093,-0.0093,-0.0085,-0.0085,-0.0085,-0.0085,-0.0085,0.0397,0.0447,0.0535,0.0641,0.0738,0.0868,0.0957,0.1094,0.1244,0.1365,0.1362,0.1345,0.1052,0.0597,0.03,-0.0016,-0.0021,-0.0166,-0.0162,-0.0159,-0.0119,-0.016,-0.02,-0.02,-0.0201,-0.0201,-0.0201,0,0.0441,0.0508,0.0609,0.0745,0.0864,0.0897,0.1077,0.119,0.1393,0.1469,0.1534,0.1247,0.0977,0.0661,0.0192,-0.0123,-0.0133,-0.0212,-0.0154,-0.015,-0.0147,-0.0104,-0.0183,-0.0184,-0.0184,-0.0185,0,0,0.0474,0.0572,0.0633,0.0837,0.0927,0.1064,0.1165,0.1355,0.1469,0.1555,0.1534,0.1443,0.1062,0.0718,0.0332,0.0086,0.0035,0.0033,0.0046,0.0163,0.017,-0.0097,-0.0025,0,0,0,0,0]}],[{"header":{"parameterUnit":"m.s-1","parameterCategory":2,"la1":30.2991,"la2":30.254,"lo1":-89.0895,"lo2":-89.0444,"dy":0.0017,"dx":0.0017,"nx":28,"ny":28,"refTime":"2025-09-16T09:00:00:Z","depth":"4","parameterNumber":2,"parameterNumberName":"U-component_of_CURRENTS"},"data":[0,0,0,0,0,0,0,0,0,0,0,0,0,0,0,0,0,0,0,0,0,0,0,0,0,0,0,0,0,0,0,0,0,0,0,0,0,0,0,0,0,0,0,0,0,0,0,0,0,0,0,0,0,0,0,0,0,0,0.112,0.1121,0,0.114,0.114,0.1141,0.12,0.1201,0.1202,0.1204,0.1296,0.1297,0.1298,0,0,0,0,0,0,0,0,0,0,0,0,0,0.1127,0.1127,0.112,0.1121,0.1121,0.114,0.114,0.1141,0.1199,0.1201,0.1203,0.1204,0.1295,0.1297,0.1298,0,0,0,0,0,0,0,0,0,0,0,0,0,0.1133,0.1127,0.112,0.1153,0.1156,0.114,0.1141,0.1141,0.1199,0.1201,0.1203,0.1205,0.1295,0.1297,0.1298,0.1268,0,0,0.1304,0.1305,0,0,0,0,0,0,0,0,0.1132,0.1132,0.1148,0.1151,0.1154,0.117,0.1177,0.1187,0.1198,0.1182,0.1204,0.1206,0.126,0.1264,0.1261,0.1273,0.1277,0.1304,0.1305,0.1306,0.1306,0,0,0,0,0,0,0,0.1132,0.1132,0.1127,0.1148,0.1152,0.1165,0.1168,0.1179,0.121,0.1183,0.1188,0.1191,0.1262,0.1259,0.1264,0.1278,0.1304,0.1306,0.1307,0.1307,0.1413,0.1414,0,0,0,0,0,0,0.1129,0.1131,0.1127,0.1128,0.1149,0.1163,0.1167,0.1162,0.1208,0.1217,0.1189,0.1194,0.1255,0.1262,0.1268,0.1351,0.1306,0.1308,0.1309,0.1411,0.1413,0.1415,0,0,0,0,0,0,0.1129,0.1128,0.1126,0.1131,0.1132,0.1161,0.1156,0.1162,0.1203,0.1212,0.1222,0.123,0.1257,0.1265,0.1323,0.1351,0.1308,0.131,0.1409,0.1412,0.1414,0.1442,0,0,0,0,0,0,0.1129,0.1127,0.1141,0.1131,0.1132,0.1153,0.1154,0.1161,0.1199,0.1206,0.1249,0.1257,0.1259,0.132,0.1325,0.1352,0.1311,0.1407,0.141,0.1413,0.1439,0.1446,0.1451,0,0,0,0,0,0.1129,0.1131,0.1142,0.1142,0.1144,0.1155,0.1158,0.1184,0.12,0.1227,0.1259,0.1258,0.1344,0.1323,0.1328,0.1356,0.1405,0.1409,0.1413,0.1437,0.1444,0.1451,0,0,0,0,0,0,0.1148,0.1137,0.1148,0.1151,0.1172,0.1166,0.1186,0.1204,0.1245,0.1261,0.1275,0.1286,0.1349,0.1351,0.1327,0.1399,0.1376,0.1381,0.1393,0.14,0.1406,0.1423,0.1313,0,0,0,0,0,0.1155,0.115,0.1157,0.1164,0.1173,0.1187,0.1201,0.1221,0.1244,0.1266,0.1295,0.1327,0.1358,0.1381,0.1407,0.1439,0.1464,0.1464,0.147,0.1475,0.1494,0.1589,0.1605,0.1428,0.1428,0.1428,0,0,0.1164,0.1157,0.1158,0.1168,0.1179,0.1196,0.1202,0.1231,0.1257,0.1267,0.1325,0.1354,0.1375,0.1419,0.1446,0.1429,0.1528,0.148,0.1484,0.1501,0.1595,0.1612,0.1628,0.1431,0.143,0.143,0,0,0.1168,0.1175,0.1178,0.1192,0.1217,0.1224,0.1244,0.1267,0.1298,0.1347,0.1365,0.1419,0.1459,0.148,0.1493,0.1548,0.1562,0.1559,0.1596,0.1687,0.1703,0.1717,0.1722,0.1737,0.1555,0.1555,0.1555,0,0.1186,0.1181,0.1187,0.1196,0.1212,0.1242,0.1264,0.1287,0.1334,0.136,0.1381,0.1475,0.1487,0.1544,0.1562,0.1561,0.1597,0.1561,0.1696,0.171,0.1725,0.1727,0.1743,0.1557,0.1557,0.1557,0.1557,0,0.1189,0.1198,0.1201,0.1218,0.1245,0.1264,0.1297,0.1336,0.1378,0.1405,0.1496,0.1536,0.1596,0.1603,0.1597,0.1696,0.168,0.1696,0.1675,0.1744,0.1741,0.1757,0.156,0.1559,0.1559,0.1558,0,0,0.1192,0.12,0.1206,0.122,0.1257,0.1277,0.132,0.1366,0.1404,0.1481,0.1552,0.1611,0.1659,0.1679,0.1698,0.1768,0.1865,0.1779,0.1782,0.1778,0.2028,0.1885,0.1887,0.1925,0.1929,0.1933,0.1967,0,0.1199,0.1209,0.1219,0.1254,0.1268,0.1303,0.1341,0.1393,0.1444,0.152,0.1596,0.1674,0.1679,0.1728,0.1806,0.1874,0.1919,0.1851,0.1967,0.1969,0.1832,0.1906,0.1946,0.1979,0.1982,0.1985,0.1987,0,0.12,0.1208,0.1234,0.1267,0.1281,0.1315,0.1384,0.1425,0.1515,0.1564,0.1666,0.1728,0.1847,0.185,0.2011,0.198,0.2006,0.2043,0.2046,0.1922,0.1859,0.191,0.2016,0.2013,0.2011,0.2009,0.2008,0,0.1189,0.1219,0.1239,0.1251,0.1298,0.1332,0.1375,0.1448,0.1495,0.1614,0.1673,0.1816,0.1921,0.202,0.2097,0.2077,0.2264,0.2234,0.2112,0.2098,0.2201,0.2186,0.2336,0.2336,0.2336,0.2335,0.2335,0,0.1162,0.1175,0.1242,0.1249,0.1292,0.1347,0.1408,0.1451,0.1559,0.1622,0.1719,0.1802,0.1987,0.21,0.2142,0.2184,0.2303,0.2133,0.2123,0.2201,0.2187,0.2208,0.2193,0.2337,0.2336,0.2336,0.2336,0,0.1099,0.114,0.1167,0.1245,0.1278,0.1313,0.1414,0.1448,0.1559,0.1654,0.1706,0.1855,0.1995,0.2116,0.2275,0.2224,0.2277,0.2245,0.2291,0.228,0.2019,0.2005,0.21,0.2095,0.2092,0.2089,0.2086,0,0.1038,0.1058,0.1158,0.1175,0.1203,0.1276,0.1313,0.1435,0.1483,0.166,0.1701,0.1875,0.1959,0.2066,0.2191,0.2252,0.2226,0.2195,0.2129,0.2027,0.2008,0.2,0.1991,0.2081,0.208,0.2079,0.2078,0,0.0934,0.0998,0.1023,0.1086,0.1132,0.117,0.1253,0.1297,0.1443,0.1564,0.1667,0.1739,0.188,0.1997,0.2067,0.21,0.2198,0.2157,0.2163,0.2101,0.2006,0.1988,0.1984,0.2066,0.2067,0.2069,0.2069,0,0.0857,0.0859,0.0933,0.0975,0.102,0.1045,0.1109,0.1195,0.1283,0.15,0.1537,0.171,0.1876,0.1916,0.1984,0.2018,0.1972,0.188,0.19,0.1914,0.1842,0.1693,0.1667,0,0,0,0,0,0.0778,0.0785,0.0812,0.0853,0.0893,0.0937,0.1049,0.1128,0.1305,0.1339,0.1444,0.156,0.1664,0.1753,0.1754,0.1879,0.1966,0.1864,0.1865,0.1997,0.2012,0.1946,0,0,0,0,0,0,0.0719,0.074,0.0779,0.0752,0.0759,0.0801,0.0872,0.0992,0.1039,0.1227,0.1314,0.1436,0.1584,0.1662,0.1718,0.1743,0.1702,0.1979,0.1974,0.1989,0.2002,0.2014,0.1951,0,0,0,0,0]},{"header":{"parameterUnit":"m.s-1","parameterCategory":2,"la1":30.2991,"la2":30.254,"lo1":-89.0895,"lo2":-89.0444,"dy":0.0017,"dx":0.0017,"nx":28,"ny":28,"refTime":"2025-09-16T09:00:00:Z","depth":"4","parameterNumber":3,"parameterNumberName":"V-component_of_CURRENTS"},"data":[0,0,0,0,0,0,0,0,0,0,0,0,0,0,0,0,0,0,0,0,0,0,0,0,0,0,0,0,0,0,0,0,0,0,0,0,0,0,0,0,0,0,0,0,0,0,0,0,0,0,0,0,0,0,0,0,0,0,0.0136,0.0136,0,0.0135,0.0135,0.0135,0.0123,0.0122,0.0122,0.0122,0.0062,0.006,0.0059,0,0,0,0,0,0,0,0,0,0,0,0,0,0.0118,0.0119,0.0136,0.0136,0.0136,0.0135,0.0135,0.0135,0.0123,0.0122,0.0122,0.0122,0.0062,0.0061,0.0059,0,0,0,0,0,0,0,0,0,0,0,0,0,0.0121,0.0119,0.0136,0.0131,0.0131,0.0135,0.0135,0.0135,0.0123,0.0122,0.0122,0.0122,0.0063,0.0061,0.0059,0.005,0,0,0.0052,0.0051,0,0,0,0,0,0,0,0,0.0121,0.0121,0.0132,0.0132,0.0131,0.013,0.0106,0.0104,0.0123,0.0124,0.0122,0.0122,0.008,0.0077,0.0076,0.0047,0.0045,0.0052,0.005,0.0049,0.0049,0,0,0,0,0,0,0,0.0121,0.0121,0.0134,0.0132,0.0132,0.0126,0.0126,0.0106,0.0101,0.0124,0.0124,0.0126,0.0079,0.0078,0.0074,0.0044,0.0052,0.005,0.0048,0.0048,-0.0004,-0.0004,0,0,0,0,0,0,0.0125,0.0121,0.0134,0.0134,0.0127,0.0127,0.0127,0.0129,0.0103,0.01,0.0126,0.0125,0.0082,0.0077,0.0072,0.0054,0.0049,0.0047,0.0046,-0.0004,-0.0004,-0.0005,0,0,0,0,0,0,0.0124,0.0126,0.0134,0.0129,0.013,0.0127,0.0131,0.013,0.0129,0.0105,0.01,0.0127,0.0081,0.0075,0.0054,0.0052,0.0046,0.0044,-0.0004,-0.0004,-0.0004,0.0023,0,0,0,0,0,0,0.0124,0.0126,0.0126,0.0129,0.013,0.0137,0.0131,0.013,0.0132,0.0131,0.0104,0.0099,0.0081,0.0057,0.0052,0.0049,0.0043,-0.0004,-0.0004,-0.0004,0.0022,0.0024,0.0025,0,0,0,0,0,0.0123,0.013,0.0126,0.0128,0.0132,0.0138,0.0138,0.0134,0.0132,0.0132,0.0114,0.01,0.0052,0.0056,0.0049,0.0045,-0.0004,-0.0004,-0.0004,0.0021,0.0023,0.0025,0,0,0,0,0,0,0.0122,0.013,0.0126,0.0134,0.0135,0.0136,0.014,0.0137,0.0125,0.0123,0.0098,0.0091,0.0071,0.0055,0.006,0.003,0.0022,0.002,0.0044,0.0045,0.0047,0.005,0.0041,0,0,0,0,0,0.0122,0.0129,0.0132,0.0137,0.0141,0.014,0.0142,0.014,0.0133,0.0128,0.0109,0.0088,0.0065,0.0054,0.0032,0.0017,-0.001,0.0011,0.0012,0.0014,0.0012,-0.0034,-0.0037,-0.0005,-0.0005,-0.0005,0,0,0.0123,0.0128,0.0132,0.0137,0.0139,0.0148,0.014,0.0148,0.0149,0.0122,0.0114,0.0091,0.0062,0.0045,0.0034,0.0031,-0.0009,0.0014,0.0015,0.0012,-0.0034,-0.0038,-0.004,-0.0005,-0.0005,-0.0005,0,0,0.0135,0.0134,0.0146,0.015,0.0156,0.0156,0.0159,0.0161,0.0155,0.0146,0.0124,0.01,0.0074,0.005,0.0035,0.0031,-0.0001,0.0027,0.0038,-0.0007,-0.001,-0.0013,-0.0048,-0.0055,0.0029,0.0029,0.0029,0,0.0134,0.0151,0.0149,0.0162,0.0171,0.0161,0.0178,0.0169,0.0161,0.0153,0.0147,0.0099,0.0075,0.0045,0.0045,0.0034,0.0007,0.0034,-0.0005,-0.0009,-0.0012,-0.0048,-0.0056,0.003,0.003,0.003,0.003,0,0.0156,0.0168,0.0177,0.019,0.0197,0.0209,0.0204,0.02,0.0192,0.0178,0.015,0.0114,0.0087,0.0074,0.0059,0.0023,0.0011,0.0001,-0.0009,-0.0014,-0.0051,-0.0059,0.0032,0.0032,0.0031,0.0031,0,0,0.0159,0.0188,0.0191,0.0211,0.0216,0.0231,0.0227,0.0224,0.0225,0.0193,0.0184,0.0136,0.0113,0.0094,0.0067,0.0027,-0.002,0.0008,0.0005,-0.0026,-0.0116,-0.0102,-0.011,-0.0039,-0.004,-0.0041,-0.013,0,0.0177,0.0216,0.022,0.0256,0.0281,0.0273,0.0275,0.0266,0.0249,0.0232,0.0178,0.0159,0.0122,0.0115,0.0064,0.0006,-0.0042,0.0005,-0.0108,-0.0111,-0.0098,-0.0119,-0.0046,-0.0136,-0.0138,-0.0139,-0.0141,0,0.0197,0.0225,0.0268,0.0307,0.0317,0.0332,0.0345,0.0345,0.0307,0.0291,0.0245,0.0206,0.0144,0.0118,-0.0006,0.0026,-0.0045,-0.0098,-0.0102,-0.0106,-0.0113,-0.0132,-0.0156,-0.0155,-0.0154,-0.0153,-0.0152,0,0.0218,0.0259,0.03,0.0312,0.0347,0.0365,0.0379,0.0363,0.0378,0.033,0.0329,0.0237,0.0209,0.0099,-0.001,-0.001,-0.0147,-0.0159,-0.0221,-0.0221,-0.0218,-0.0214,-0.0259,-0.0259,-0.0259,-0.0258,-0.0258,0,0.0241,0.0274,0.0318,0.0344,0.0399,0.0405,0.0451,0.0441,0.0438,0.0452,0.0365,0.0349,0.0202,0.011,-0.0004,-0.0134,-0.0147,-0.0227,-0.0247,-0.0203,-0.0197,-0.0224,-0.0219,-0.0262,-0.0261,-0.026,-0.026,0,0.026,0.0283,0.0343,0.0394,0.0415,0.0458,0.0525,0.0555,0.0532,0.0547,0.0539,0.0437,0.0311,0.0161,-0.0012,-0.0108,-0.024,-0.0286,-0.0222,-0.0236,-0.0289,-0.0281,-0.0368,-0.0368,-0.0368,-0.0369,-0.0369,0,0.0276,0.0307,0.0387,0.0434,0.0465,0.0533,0.0583,0.0603,0.0636,0.06,0.0607,0.0495,0.0408,0.0172,0.0005,-0.0217,-0.0249,-0.0323,-0.032,-0.0292,-0.0303,-0.0294,-0.0286,-0.0369,-0.0369,-0.0369,-0.037,0,0.0311,0.0337,0.0389,0.0483,0.0555,0.0637,0.0703,0.0736,0.0745,0.0733,0.0666,0.0529,0.0384,0.0185,0.0016,-0.0146,-0.0277,-0.0327,-0.0327,-0.0325,-0.0295,-0.0303,-0.0295,-0.0371,-0.037,-0.037,-0.037,0,0.0339,0.038,0.0446,0.0532,0.062,0.07,0.074,0.0775,0.0804,0.0759,0.0736,0.0559,0.0461,0.0222,0.0063,-0.0091,-0.0136,-0.0192,-0.0201,-0.0202,-0.0128,-0.0063,-0.0091,0,0,0,0,0,0.0375,0.0421,0.0492,0.0584,0.0668,0.0717,0.08,0.0829,0.084,0.0808,0.0774,0.0636,0.0384,0.0269,0.0118,0.005,-0.0165,-0.0134,-0.0234,-0.0376,-0.0375,-0.0316,0,0,0,0,0,0,0.0395,0.0466,0.0494,0.0606,0.0666,0.0763,0.0814,0.0826,0.0809,0.0787,0.0662,0.059,0.0354,0.0469,0.011,0.0061,-0.0025,-0.025,-0.0253,-0.0377,-0.0376,-0.0375,-0.0314,0,0,0,0,0]}]]